sat.trackr.live / text

‹ back to catalog

STARLINK-30074

NORAD 57508 · 2023-113P

PAYLOAD ACTIVE UNKNOWN

§ Identity

Operator
Country
US
Launch date
2023-08-07
Launch site
AFETR
Launch vehicle
Mass (kg)
RCS (m²)

Purposes: comms

External: N2YO · Heavens-Above · Gunter

§ Orbital elements

Epoch: 2026-05-25T03:03:50.395104Z

Period
94.27 min
Inclination
43.0028°
Eccentricity
0.0001416
Mean motion
15.27584659 rev/d
Perigee alt
482.1 km
Apogee alt
484.0 km
Semi-major
6,861.2 km
B*
1.1568e-4
RAAN
304.5304°
Arg perigee
266.5325°
Mean anomaly
93.5364°
Rev number
15,515

§ Raw data

STARLINK-300741 57508U 23113P   26145.12766661  .00002923  00000+0  11568-3 0  99972 57508  43.0028 304.5304 0001416 266.5325  93.5364 15.27584659155153

JSON: /api/v1/satellites/57508 · /tle

For live sub-satellite position, see the globe view (requires WebGL).

§ Visibility from observer

Set your observer location to see the next 7 days of passes ≥ 10°. The values pass through the URL so the page stays shareable.

No JS? Fill the form by hand. The geolocation button needs JavaScript.